TimeCST,TemperatureF,Dew PointF,Humidity,Sea Level PressureIn,VisibilityMPH,Wind Direction,Wind SpeedMPH,Gust SpeedMPH,PrecipitationIn,Events,Conditions,WindDirDegrees,DateUTC
12:10 AM,41.0,39.2,93,29.77,10.0,WSW,15.0,-,N/A,,Clear,250,2013-11-09 06:10:00
12:30 AM,41.0,39.2,93,29.78,10.0,West,13.8,19.6,N/A,,Clear,260,2013-11-09 06:30:00
12:50 AM,39.2,39.2,100,29.78,10.0,West,16.1,21.9,N/A,,Clear,270,2013-11-09 06:50:00
1:10 AM,39.2,37.4,93,29.79,10.0,West,16.1,21.9,N/A,,Clear,270,2013-11-09 07:10:00
1:30 AM,39.2,37.4,93,29.80,10.0,West,15.0,20.7,N/A,,Clear,280,2013-11-09 07:30:00
1:50 AM,39.2,37.4,93,29.81,10.0,West,13.8,20.7,N/A,,Clear,270,2013-11-09 07:50:00
2:10 AM,39.2,37.4,93,29.81,10.0,West,12.7,18.4,N/A,,Clear,270,2013-11-09 08:10:00
2:30 AM,37.4,37.4,100,29.82,10.0,West,13.8,20.7,N/A,,Clear,280,2013-11-09 08:30:00
2:50 AM,37.4,37.4,100,29.82,10.0,WNW,15.0,20.7,N/A,,Clear,290,2013-11-09 08:50:00
3:10 AM,37.4,37.4,100,29.83,10.0,WNW,13.8,-,N/A,,Clear,290,2013-11-09 09:10:00
3:30 AM,37.4,37.4,100,29.84,10.0,West,10.4,-,N/A,,Clear,280,2013-11-09 09:30:00
3:50 AM,37.4,37.4,100,29.85,10.0,WNW,13.8,-,N/A,,Clear,290,2013-11-09 09:50:00
4:10 AM,37.4,37.4,100,29.86,10.0,WNW,15.0,-,N/A,,Scattered Clouds,290,2013-11-09 10:10:00
4:30 AM,37.4,37.4,100,29.87,10.0,WNW,15.0,20.7,N/A,,Overcast,290,2013-11-09 10:30:00
4:50 AM,37.4,37.4,100,29.88,10.0,WNW,15.0,20.7,N/A,,Scattered Clouds,290,2013-11-09 10:50:00
5:10 AM,37.4,37.4,100,29.89,10.0,WNW,17.3,23.0,N/A,,Scattered Clouds,300,2013-11-09 11:10:00
5:30 AM,37.4,37.4,100,29.90,10.0,NW,16.1,23.0,N/A,,Overcast,310,2013-11-09 11:30:00
5:50 AM,37.4,37.4,100,29.91,10.0,NW,17.3,23.0,N/A,,Mostly Cloudy,310,2013-11-09 11:50:00
6:10 AM,37.4,37.4,100,29.92,10.0,NW,16.1,23.0,N/A,,Partly Cloudy,310,2013-11-09 12:10:00
6:30 AM,35.6,35.6,100,29.93,10.0,NW,13.8,23.0,N/A,,Clear,310,2013-11-09 12:30:00
6:50 AM,35.6,35.6,100,29.95,10.0,WNW,13.8,-,N/A,,Clear,300,2013-11-09 12:50:00
7:10 AM,35.6,35.6,100,29.96,10.0,WNW,15.0,19.6,N/A,,Mostly Cloudy,290,2013-11-09 13:10:00
7:30 AM,35.6,35.6,100,29.97,10.0,WNW,17.3,21.9,N/A,,Mostly Cloudy,300,2013-11-09 13:30:00
7:50 AM,35.6,35.6,100,29.98,10.0,NW,16.1,23.0,N/A,,Clear,310,2013-11-09 13:50:00
8:10 AM,35.6,35.6,100,30.00,10.0,NW,19.6,26.5,N/A,,Clear,310,2013-11-09 14:10:00
8:30 AM,35.6,35.6,100,30.01,10.0,NW,19.6,29.9,N/A,,Clear,310,2013-11-09 14:30:00
8:50 AM,37.4,37.4,100,30.02,10.0,NW,21.9,26.5,N/A,,Scattered Clouds,310,2013-11-09 14:50:00
9:10 AM,37.4,37.4,100,30.03,10.0,NW,19.6,28.8,N/A,,Overcast,310,2013-11-09 15:10:00
9:30 AM,37.4,37.4,100,30.04,10.0,NW,18.4,28.8,N/A,,Overcast,310,2013-11-09 15:30:00
9:50 AM,37.4,37.4,100,30.05,10.0,NW,19.6,26.5,N/A,,Overcast,310,2013-11-09 15:50:00
10:10 AM,37.4,37.4,100,30.05,10.0,NW,23.0,31.1,N/A,,Overcast,310,2013-11-09 16:10:00
10:30 AM,37.4,37.4,100,30.07,10.0,NW,21.9,31.1,N/A,,Overcast,320,2013-11-09 16:30:00
10:50 AM,37.4,37.4,100,30.07,10.0,NW,19.6,34.5,N/A,,Overcast,310,2013-11-09 16:50:00
11:10 AM,37.4,37.4,100,30.08,10.0,NW,21.9,32.2,N/A,,Overcast,310,2013-11-09 17:10:00
11:30 AM,39.2,37.4,93,30.08,10.0,NW,20.7,28.8,N/A,,Overcast,310,2013-11-09 17:30:00
11:50 AM,41.0,37.4,87,30.07,10.0,WNW,23.0,27.6,N/A,,Mostly Cloudy,300,2013-11-09 17:50:00
12:10 PM,41.0,35.6,81,30.08,10.0,NW,24.2,31.1,N/A,,Scattered Clouds,310,2013-11-09 18:10:00
12:30 PM,41.0,35.6,81,30.08,10.0,WNW,21.9,34.5,N/A,,Partly Cloudy,300,2013-11-09 18:30:00
12:50 PM,42.8,37.4,81,30.08,10.0,NW,20.7,29.9,N/A,,Scattered Clouds,310,2013-11-09 18:50:00
1:10 PM,42.8,35.6,76,30.08,10.0,WNW,21.9,29.9,N/A,,Mostly Cloudy,300,2013-11-09 19:10:00
1:30 PM,44.6,32.0,61,30.08,10.0,WNW,26.5,31.1,N/A,,Partly Cloudy,290,2013-11-09 19:30:00
1:50 PM,44.6,30.2,57,30.09,10.0,NW,26.5,38.0,N/A,,Partly Cloudy,310,2013-11-09 19:50:00
2:10 PM,44.6,30.2,57,30.10,10.0,NW,25.3,32.2,N/A,,Clear,310,2013-11-09 20:10:00
2:30 PM,44.6,28.4,53,30.11,10.0,NW,24.2,34.5,N/A,,Clear,310,2013-11-09 20:30:00
2:50 PM,44.6,28.4,53,30.12,10.0,WNW,21.9,32.2,N/A,,Partly Cloudy,300,2013-11-09 20:50:00
3:10 PM,44.6,28.4,53,30.13,10.0,NW,23.0,34.5,N/A,,Partly Cloudy,310,2013-11-09 21:10:00
3:30 PM,42.8,28.4,57,30.14,10.0,NW,23.0,29.9,N/A,,Clear,310,2013-11-09 21:30:00
3:50 PM,41.0,28.4,61,30.15,10.0,NW,18.4,31.1,N/A,,Clear,310,2013-11-09 21:50:00
4:10 PM,41.0,26.6,57,30.16,10.0,NW,23.0,29.9,N/A,,Clear,320,2013-11-09 22:10:00
4:30 PM,39.2,26.6,61,30.17,10.0,NW,16.1,24.2,N/A,,Clear,320,2013-11-09 22:30:00
4:50 PM,39.2,26.6,61,30.17,10.0,NW,15.0,-,N/A,,Clear,320,2013-11-09 22:50:00
5:10 PM,37.4,26.6,65,30.18,10.0,NW,13.8,21.9,N/A,,Clear,310,2013-11-09 23:10:00
5:30 PM,35.6,26.6,70,30.19,10.0,NW,11.5,-,N/A,,Clear,310,2013-11-09 23:30:00
5:50 PM,35.6,26.6,70,30.20,10.0,NW,11.5,-,N/A,,Clear,320,2013-11-09 23:50:00
6:10 PM,35.6,26.6,70,30.21,10.0,NW,12.7,-,N/A,,Clear,310,2013-11-10 00:10:00
6:30 PM,35.6,26.6,70,30.22,10.0,NW,12.7,18.4,N/A,,Clear,310,2013-11-10 00:30:00
6:50 PM,33.8,26.6,75,30.23,10.0,NW,11.5,-,N/A,,Clear,310,2013-11-10 00:50:00
7:10 PM,32.0,26.6,80,30.24,10.0,NW,11.5,-,N/A,,Clear,310,2013-11-10 01:10:00
7:30 PM,32.0,26.6,80,30.25,10.0,NW,9.2,-,N/A,,Clear,310,2013-11-10 01:30:00
7:50 PM,32.0,26.6,80,30.25,10.0,NW,10.4,-,N/A,,Clear,310,2013-11-10 01:50:00
8:10 PM,32.0,28.4,87,30.26,10.0,NW,11.5,-,N/A,,Clear,320,2013-11-10 02:10:00
8:30 PM,32.0,28.4,87,30.26,10.0,NW,10.4,-,N/A,,Clear,320,2013-11-10 02:30:00
8:50 PM,30.2,28.4,93,30.27,10.0,NW,9.2,-,N/A,,Clear,320,2013-11-10 02:50:00
9:10 PM,28.4,28.4,100,30.28,10.0,NNW,9.2,-,N/A,,Clear,330,2013-11-10 03:10:00
9:30 PM,28.4,28.4,100,30.29,10.0,NNW,6.9,-,N/A,,Clear,330,2013-11-10 03:30:00
9:50 PM,28.4,28.4,100,30.30,10.0,NNW,8.1,-,N/A,,Clear,330,2013-11-10 03:50:00
10:10 PM,26.6,26.6,100,30.31,10.0,NNW,8.1,-,N/A,,Clear,330,2013-11-10 04:10:00
10:30 PM,26.6,26.6,100,30.32,10.0,NNW,8.1,-,N/A,,Clear,330,2013-11-10 04:30:00
10:50 PM,28.4,28.4,100,30.31,10.0,NNW,11.5,-,N/A,,Clear,340,2013-11-10 04:50:00
11:10 PM,28.4,28.4,100,30.31,10.0,North,9.2,-,N/A,,Clear,350,2013-11-10 05:10:00
11:30 PM,26.6,26.6,100,30.32,10.0,NW,5.8,-,N/A,,Clear,310,2013-11-10 05:30:00
11:50 PM,26.6,26.6,100,30.32,10.0,WNW,4.6,-,N/A,,Clear,300,2013-11-10 05:50:00